Location: Kruen
(47.5000°N, 11.5000°E)
Time: 07:01:39
(UTC+02:00)

BUGSAT 1 - Visible Passes

Search period start: 19 April 2026 00:00
Search period end: 29 April 2026 00:00
Orbit: 501 x 541 km, 98.0° (Epoch: 18 April)

Date Brightness Start Highest point End Pass type
(mag) Time Alt. Az. Time Alt. Az. Time Alt. Az.
19 Apr ? 00:39:21 18° NW 00:39:21 18° NW 00:40:29 10° NNW visible
19 Apr ? 22:50:48 14° NE 22:50:48 14° NE 22:52:13 10° NNE visible
20 Apr ? 00:25:55 22° NNW 00:25:55 22° NNW 00:27:26 10° NNW visible
20 Apr ? 22:37:22 11° NE 22:37:22 11° NE 22:38:05 10° NE visible
21 Apr ? 00:12:28 27° NNW 00:12:28 27° NNW 00:14:17 10° NNW visible
21 Apr ? 23:59:01 31° N 23:59:01 31° N 00:01:04 10° N visible
22 Apr ? 23:45:34 32° NNE 23:45:34 32° NNE 23:47:46 10° N visible
23 Apr ? 23:32:06 29° NNE 23:32:06 29° NNE 23:34:25 10° N visible
24 Apr ? 01:07:12 13° NW 01:07:12 13° NW 01:07:51 10° NW visible
24 Apr ? 23:18:38 24° NE 23:18:38 24° NE 23:20:59 10° N visible
25 Apr ? 00:53:44 17° NW 00:53:44 17° NW 00:55:01 10° NW visible
25 Apr ? 23:05:10 19° NE 23:05:10 19° NE 23:07:26 10° NNE visible
26 Apr ? 00:40:16 23° NW 00:40:16 23° NW 00:42:02 10° NNW visible
26 Apr ? 22:51:42 15° ENE 22:51:42 15° ENE 22:53:43 10° NNE visible
27 Apr ? 00:26:48 30° NW 00:26:48 30° NW 00:28:57 10° NNW visible
27 Apr ? 22:38:13 11° ENE 22:38:28 11° ENE 22:39:34 10° NE visible
28 Apr ? 00:13:19 38° NNW 00:13:19 38° NNW 00:15:46 10° NNW visible
